Regional Weather Roundup
Issued by NWS Northern Indiana

Home | Current Version | Previous Version | Text Only | Print | Product List | Glossary On
Versions: 1 2 3 4 5 6 7 8 9 10 11 12 13 14 15 16 17 18 19 20 21 22 23 24 25 26 27 28 29 30 31 32 33 34 35 36 37 38 39 40 41 42 43 44 45 46 47 48 49 50
000
ASUS43 KIWX 220710
RWRIWX

KIWX WEATHER ROUNDUP
NATIONAL WEATHER SERVICE NORTHERN INDIANA
300 AM EDT TUE JUL 22 2014

NOTE: "FAIR" INDICATES FEW OR NO CLOUDS BELOW 12,000 FEET WITH NO
SIGNIFICANT WEATHER AND/OR OBSTRUCTIONS TO VISIBILITY.

* THESE STATIONS ARE NOT UNDER NWS QUALITY CONTROL. THEY ALSO MAY NOT
  REPORT WEATHER SUCH AS PRECIPITATION OR FOG.

INZ001>027-220800-
NORTHERN INDIANA

CITY           SKY/WX    TMP DP  RH WIND       PRES   REMARKS
GARY*          CLEAR     67  64  92 CALM      30.07S
VALPARAISO     CLEAR     67  63  87 CALM      30.09R
MICHIGAN CITY* CLEAR     64  63  94 CALM      30.08S FOG
LAPORTE*       CLEAR     63  63 100 CALM      30.09S FOG
KNOX*          CLEAR     62  60  92 CALM      30.08S
SOUTH BEND     CLEAR     69  62  78 CALM      30.08F
GOSHEN         CLEAR     66  63  90 SE3       30.09S
MONTICELLO*    FOG       66  65  99 CALM      30.07S VSB 1/2
LOGANSPORT*    CLEAR     63  61  94 CALM      30.10R
ROCHESTER*     CLEAR     64  63  94 CALM      30.09S
WARSAW*        CLEAR     63  63 100 CALM      30.10R FOG
ANGOLA*        CLEAR     64  64 100 CALM      30.10F
FORT WAYNE     CLEAR     67  62  84 CALM      30.10S
HUNTINGTON*    CLEAR     64  62  93 CALM      30.09F
PERU/GRISSOM   CLEAR     65  65 100 CALM      30.09S
MARION*        CLEAR     63  61  96 CALM      30.11S

$$
INZ028>050-220800-
CENTRAL INDIANA

CITY           SKY/WX    TMP DP  RH WIND       PRES   REMARKS
LAFAYETTE      CLEAR     65  64  97 CALM      30.08S FOG
KOKOMO*        CLEAR     63  61  94 SE3       30.10S
MUNCIE*        CLEAR     65  61  87 CALM      30.10F
INDIANAPOLIS   CLEAR     72  63  73 CALM      30.09S

$$
MIZ043>046-050>051-056>058-064>065-071>073-077>080-220800-
SOUTHWEST LOWER MICHIGAN

CITY           SKY/WX    TMP DP  RH WIND       PRES   REMARKS
BATTLE CREEK   CLEAR     69  63  81 S5        30.10S
BENTON HARBOR  CLEAR     64  62  93 S3        30.07S
COLDWATER*     CLEAR     66  64  93 CALM      30.11R
HILLSDALE*     CLEAR     66  63  89 CALM      30.11F
HOLLAND        CLEAR     68  64  87 S3        30.07S FOG
GRAND RAPIDS   CLEAR     68  65  90 S8        30.08S
KALAMAZOO      CLEAR     66  63  90 S3        30.08F
STURGIS*       CLEAR     64  63  94 CALM      30.10R
THREE RIVERS*  FAIR      66  65  98 CALM      30.09F

$$
OHZ001>008-015>018-024>025-220800-
NORTHWEST OHIO

CITY           SKY/WX    TMP DP  RH WIND       PRES   REMARKS
WAUSEON*       FAIR      63  59  88 CALM      30.10S
DEFIANCE       CLEAR     68  63  84 CALM      30.10S
FINDLAY        CLEAR     69  64  84 SE3       30.10F
TOLEDO EXPRESS CLEAR     64  59  83 CALM      30.10F
TOLEDO METCALF CLEAR     67  58  72 SE5       30.11S
LIMA           CLEAR     70  64  81 CALM      30.10F

$$
&&


USA.gov is the U.S. government's official web portal to all federal, state and local government web resources and services.